Regional Weather Roundup
Issued by NWS

Home | Current Version | Previous Version | Graphics & Text | Print | Product List | Glossary On
Versions: 1 2 3 4 5 6 7 8 9 10 11 12 13 14 15 16 17 18 19 20 21 22 23 24 25 26 27 28 29 30 31 32 33 34 35 36 37 38 39 40 41 42 43 44 45 46 47 48 49 50
255
ASUS43 KOAX 260102
RWRNE

WEATHER ROUNDUP FOR NEBRASKA
NATIONAL WEATHER SERVICE OMAHA NE
800 PM CDT MON JUL 25 2016

NOTES: SATELLITE DATA IS BEING USED TO AUGMENT CLOUD COVER ABOVE
       12000 FEET.
       "FAIR" INDICATES FEW OR NO CLOUDS BELOW 12,000 FEET WITH NO
       SIGNIFICANT WEATHER AND/OR OBSTRUCTIONS TO VISIBILITY.

  * THESE STATIONS DO NOT REPORT WEATHER SUCH AS RAIN...SNOW OR FOG.

NEZ001>004-019>022-054>056-260200-
NEBRASKA PANHANDLE

CITY           SKY/WX    TMP DP  RH WIND       PRES   REMARKS
SCOTTSBLUFF    SUNNY     90  56  31 SE12      30.03R
ALLIANCE       SUNNY     83  60  45 SE18      30.06R
CHADRON        SUNNY     90  58  33 SE15      29.99S
SIDNEY         SUNNY     83  60  45 S20       30.11S
$$

NEZ057>060-069>072-079>082-260200-
SOUTHWEST NEBRASKA

CITY           SKY/WX    TMP DP  RH WIND       PRES   REMARKS
NORTH PLATTE   SUNNY     82  68  62 SE8       30.06S
IMPERIAL       SUNNY     85  59  41 S12       30.08R
LEXINGTON      CLEAR     82  66  58 SE9       30.07R
MCCOOK         SUNNY     85  63  47 SE9       30.05R
OGALLALA       MOSUNNY   87  58  37 S10G16    30.07R
$$

NEZ005>010-023>029-035>040-094-260200-
NORTH CENTRAL NEBRASKA

CITY           SKY/WX    TMP DP  RH WIND       PRES   REMARKS
VALENTINE      SUNNY     86  59  39 S14       30.04S
AINSWORTH      SUNNY     82  59  45 SE10      30.07S
BROKEN BOW     CLEAR     79  64  60 SE8       30.08R
O`NEILL        CLEAR     83  52  34 SE7       30.07R
ORD            CLEAR     83  61  47 SE7       30.05R
THEDFORD       SUNNY     84  65  53 S14       30.09S
$$

NEZ041-046>049-061>064-073>077-083>087-260200-
SOUTH CENTRAL NEBRASKA

CITY           SKY/WX    TMP DP  RH WIND       PRES   REMARKS
GRAND ISLAND   CLEAR     81  65  58 E8        30.08R
AURORA         CLEAR     80  65  59 E5        30.07S
HASTINGS       CLEAR     82  62  50 E9        30.08R
HEBRON         CLEAR     83  60  45 E8        30.05R
HOLDREGE       CLEAR     82  64  53 SE6       30.07R
KEARNEY *      CLEAR     82  63  51 E10       30.08R
$$

NEZ011>018-030>034-042>045-260200-
NORTHEAST NEBRASKA

CITY           SKY/WX    TMP DP  RH WIND       PRES   REMARKS
NORFOLK        CLEAR     80  62  54 SE7       30.06R
ALBION         CLEAR     79  65  60 E5        30.07R
BLAIR          PTCLDY    81  69  65 E3        30.06R
FREMONT        CLEAR     82  61  50 E6        30.06R
TEKAMAH        CLEAR     83  69  62 E5        30.04S
WAYNE          CLEAR     80  69  70 SE5       30.07R
$$

NEZ050>053-065>068-078-088>093-260200-
SOUTHEAST NEBRASKA

CITY           SKY/WX    TMP DP  RH WIND       PRES   REMARKS
LINCOLN        CLEAR     84  64  50 E9        30.06R
OMAHA EPPLEY   PTCLDY    84  67  56 E6        30.04R
BEATRICE       CLEAR     82  63  51 E7        30.06R
FALLS CITY     CLEAR     82  71  69 NE3       30.04R
NEBRASKA CITY  CLEAR     80  66  63 E3        30.06R
PLATTSMOUTH    CLEAR     81  69  67 E3        30.06R
$$

NEZ044-045-051>053-067-260200-
OMAHA AREA

CITY           SKY/WX    TMP DP  RH WIND       PRES   REMARKS
OMAHA EPPLEY   PTCLDY    84  67  56 E6        30.04R
BLAIR          PTCLDY    81  69  65 E3        30.06R
FREMONT        CLEAR     82  61  50 E6        30.06R
MILLARD        CLEAR     84  65  52 E6        30.05R
OFFUTT AFB     CLEAR     82  69  63 E6        30.05R
PLATTSMOUTH    CLEAR     81  69  67 E3        30.06R
WAHOO          FAIR      80  66  62 E3        30.06R
$$




USA.gov is the U.S. government's official web portal to all federal, state and local government web resources and services.